Regional Weather Roundup
Issued by NWS Tiyan, Guam

Home | Current Version | Previous Version | Text Only | Print | Product List | Glossary On
Versions: 1 2 3 4 5 6 7 8 9 10 11 12 13 14 15 16 17 18 19 20 21 22 23 24 25 26 27
000
ASGM40 PGUM 180612
RWRGUM
WEATHER ROUNDUP FOR THE MARIANAS
NATIONAL WEATHER SERVICE TIYAN GU
400 PM GSST FRI APR 18 2014

GUZ001>004-180700-
MARIANA ISLANDS-

CITY           SKY/WX    TMP DP  RH WIND       PRES   REMARKS
GUAM AIRPORT   MOSUNNY   86  75  70 E13G20    29.75F HX  95
ANDERSEN AFB   MOSUNNY   82  77  83 E12       29.76F HX  91
ROTA AIRPORT   PTSUNNY   81  77  89 E13       29.76F
TINIAN AP      PTSUNNY   82  75  78 E12       29.75F
SAIPAN AP      MOSUNNY   84  77  79 E13       29.76F HX  94

$$




USA.gov is the U.S. government's official web portal to all federal, state and local government web resources and services.